STARLINK-31395

operational
NORAD ID: 59180 Int'l Des: 2024-045 Owner: SPXS Country: US Constellation: starlink
LEOCIRCULAR

About STARLINK-31395

Description loading...

Live Position

Loading 3D Globe...

Upcoming Passes

Altitude History

Altitude vs Time

uPlot chart will show altitude changes over time

Two-Line Element Set

1 59180U 24045C 25250.71994517 -.00002360 00000-0 -76225-4 0 9994
2 59180 43.0015 46.2828 0001137 264.4954 95.5768 15.27592530 85174
Epoch: Sep 7, 2025 • Age: 22 hours

Current Status

Altitude 486.9 km
Velocity 7.63 km/s
Sub-Earth Point 43.05°N, 96.27°W
Launch Date Mar 11, 2024
Age 1.4 years
Type internet

Technical Details

Classification Payload
Mass 730.00 kg
Dry Mass 700.00 kg
Total Mass 730.00 kg
Length 0.30 m
Diameter 4.10 m
Span 29.00 m
Shape Box + pan
Manufacturer SPXS
Bus Type Starlink V2M
Phase Status In Orbit
Owner/State SPXS/US

Large Constellations

Loading constellations...